Vorticity
14 15 19 1 19 15 25 10 19 18 28 16 13 13 8 30 -22 31 44 4 2 -2 -1 -0 -8 7 8 9 -10 5 -15 6 8 19 5 22 6 3 -2 33 12 1 2
10 9 14 9 15 13 26 12 21 19 23 12 22 7 37 0 7 35 35 20 16 14 6 11 -2 18 -17 21 11 3 20 13 15 -10 5 12 14 16 5 11 26 23 4
8 8 8 11 15 7 22 13 23 23 28 8 26 18 3 18 66 13 27 24 29 30 20 6 26 15 9 12 14 19 13 17 6 22 7 3 13 17 6 -2 7 26 24
9 7 7 7 12 2 15 28 11 22 37 11 8 19 33 -10 -1 22 24 -4 -10 10 17 16 17 23 3 11 13 6 5 6 7 1 9 11 11 10 28 10 18 18 11
11 10 7 7 8 10 2 15 30 10 16 38 9 10 17 32 1 27 6 54 18 -7 28 15 16 10 11 10 8 11 7 14 9 9 6 2 -2 16 20 4 15 6 21
10 9 9 9 8 8 9 11 8 18 23 14 32 9 10 20 30 21 27 2 61 11 24 7 1 7 4 4 7 8 20 11 25 -4 12 17 21 -2 0 -8 25 -9 34
12 11 12 11 9 9 8 8 10 11 2 23 16 12 12 22 13 31 22 24 19 4 31 -8 8 7 8 12 13 11 8 11 10 6 10 11 9 -8 10 32 2 25 -3
11 12 14 15 14 10 10 9 9 7 9 16 12 4 37 15 16 8 24 9 26 33 16 9 7 11 9 10 7 7 8 9 9 8 7 11 10 16 -0 -7 -8 9 30
10 11 13 13 17 16 9 8 10 10 9 8 13 13 15 13 15 1 -9 4 15 15 24 8 15 11 13 11 11 11 11 12 13 17 14 11 11 11 11 14 0 -5 -12
11 10 12 13 14 17 16 11 9 8 10 10 8 8 13 15 18 15 -2 -1 -2 2 5 14 14 16 14 11 11 9 9 9 9 10 13 11 13 12 13 12 13 28 6
11 11 10 11 14 13 16 15 12 10 9 9 9 9 9 9 11 14 21 19 8 4 -2 11 12 10 8 13 12 7 6 8 8 9 9 7 10 11 13 11 15 19 4
10 11 10 10 12 12 12 13 14 13 12 11 11 9 9 9 9 9 12 19 22 6 3 -1 6 9 10 10 10 13 15 9 3 5 10 9 8 8 9 12 10 10 20
10 11 11 11 11 11 11 12 12 12 12 13 13 13 12 12 10 10 10 10 12 20 26 11 -0 3 9 5 8 9 10 12 10 9 5 10 11 9 11 6 8 7 11
10 10 10 10 10 10 10 11 11 11 12 13 14 13 13 12 12 12 11 12 13 12 12 14 21 15 13 10 8 10 10 11 11 10 9 9 7 9 11 8 10 6 9
10 10 11 10 10 11 11 11 11 11 10 10 10 11 12 14 14 13 16 14 12 12 12 14 15 15 12 13 13 12 11 11 10 12 15 14 10 8 6 6 13 5 4
10 10 10 10 11 10 10 11 10 10 11 10 10 10 10 11 13 13 14 13 13 12 14 13 12 14 16 16 16 16 15 11 11 11 11 13 15 13 10 8 5 11 8
10 11 12 12 12 12 11 9 10 9 10 10 10 9 9 10 10 11 12 12 13 16 16 15 14 14 13 12 14 17 15 15 14 13 13 11 12 14 13 10 10 8 6
10 11 10 10 10 12 11 12 12 11 11 10 9 9 9 8 9 9 9 11 12 10 12 12 13 15 15 15 14 12 13 16 15 14 12 13 12 13 17 15 11 11 9
11 11 11 12 12 12 12 12 12 12 12 12 12 10 9 9 9 10 10 9 10 12 12 12 13 14 14 15 17 18 17 14 16 15 15 14 13 13 14 17 18 13 12
15 15 16 15 15 14 13 12 13 13 13 12 13 13 12 11 9 8 9 9 10 11 11 11 13 15 15 16 17 18 18 20 18 18 16 16 17 16 16 18 19 19 15
16 17 17 17 17 15 15 15 14 14 13 13 13 13 13 13 13 13 11 11 10 10 9 9 10 11 12 14 17 18 20 22 22 22 19 18 17 16 16 20 23 27 21
16 15 15 16 17 17 16 15 15 15 15 13 13 12 12 12 12 11 12 13 13 12 12 11 11 10 10 11 12 15 19 22 24 24 23 20 20 20 18 17 22 17 20
14 15 15 15 14 15 16 16 15 14 14 14 12 11 11 12 12 13 13 13 12 12 12 12 11 11 12 12 12 12 14 17 21 24 25 23 24 25 22 18 14 13 14
13 14 14 14 15 15 15 16 17 15 15 14 13 12 11 11 12 12 11 11 11 12 12 12 13 13 14 14 14 13 13 16 15 18 24 24 24 25 25 24 24 21 19
12 13 14 14 14 14 14 14 16 17 17 17 15 14 13 11 11 10 11 12 12 12 12 12 13 12 13 15 13 14 14 14 16 16 21 25 25 26 24 25 26 25 25
12 12 13 14 14 13 14 14 14 15 18 18 17 15 15 14 12 11 12 12 12 12 13 13 12 12 11 11 12 14 13 13 17 17 18 25 26 24 25 24 24 23 23
Height
3018 3011 3006 2999 2992 2984 2975 2966 2959 2954 2949 2946 2946 2945 2945 2946 2947 2949 2953 2961 2969 2975 2980 2985 2989 2992 2995 2997 2999 3002 3003 3005 3006 3011 3016 3018 3020 3023 3027 3029 3032 3037 3041
3014 3007 3000 2992 2985 2977 2968 2960 2952 2946 2941 2938 2937 2936 2936 2935 2936 2938 2939 2945 2954 2961 2967 2973 2978 2981 2983 2986 2987 2990 2993 2996 2997 3000 3006 3009 3011 3015 3018 3021 3024 3028 3031
3009 3002 2995 2987 2980 2973 2964 2955 2947 2940 2935 2933 2930 2928 2928 2928 2925 2925 2932 2936 2941 2948 2954 2961 2966 2969 2972 2974 2975 2979 2982 2986 2989 2991 2995 3001 3003 3006 3007 3011 3013 3017 3020
3003 2997 2989 2982 2976 2969 2960 2951 2943 2936 2931 2928 2924 2921 2920 2921 2920 2917 2924 2926 2932 2939 2942 2948 2953 2957 2960 2963 2966 2972 2975 2979 2983 2984 2986 2989 2992 2996 2998 3001 3002 3006 3010
2998 2992 2984 2978 2971 2964 2958 2950 2940 2934 2929 2925 2921 2918 2916 2915 2915 2914 2913 2914 2919 2924 2931 2937 2943 2947 2951 2955 2959 2964 2968 2972 2974 2976 2978 2980 2984 2987 2987 2992 2994 2997 3000
2993 2987 2980 2975 2968 2961 2955 2947 2940 2933 2926 2922 2919 2917 2915 2912 2911 2909 2908 2907 2907 2918 2924 2929 2935 2941 2945 2949 2951 2954 2959 2963 2965 2968 2970 2972 2976 2980 2982 2981 2983 2986 2988
2988 2981 2976 2971 2965 2958 2952 2946 2939 2933 2928 2922 2918 2914 2911 2910 2908 2906 2902 2898 2904 2903 2907 2913 2923 2931 2935 2940 2943 2946 2949 2953 2956 2957 2960 2963 2966 2970 2972 2974 2975 2976 2977
2984 2977 2971 2965 2960 2955 2950 2944 2938 2933 2927 2922 2918 2913 2909 2907 2906 2904 2903 2905 2905 2902 2904 2911 2920 2923 2928 2934 2935 2937 2940 2943 2946 2949 2951 2955 2956 2960 2962 2964 2965 2966 2966
2979 2973 2966 2960 2955 2950 2946 2941 2936 2930 2926 2922 2917 2913 2909 2907 2905 2905 2904 2904 2906 2901 2907 2913 2914 2917 2919 2923 2928 2930 2932 2934 2936 2939 2942 2945 2947 2949 2950 2952 2954 2955 2957
2974 2968 2962 2955 2950 2944 2940 2937 2933 2929 2925 2920 2915 2911 2909 2905 2903 2903 2905 2904 2904 2904 2907 2907 2907 2909 2912 2915 2919 2922 2923 2925 2927 2930 2933 2935 2937 2938 2940 2942 2944 2945 2948
2971 2964 2958 2952 2946 2940 2935 2931 2929 2925 2921 2917 2913 2910 2907 2903 2901 2901 2900 2899 2897 2899 2902 2903 2902 2903 2905 2908 2911 2913 2915 2918 2920 2922 2924 2925 2927 2929 2931 2932 2932 2935 2936
2966 2961 2955 2949 2944 2938 2933 2929 2925 2922 2918 2914 2911 2907 2904 2901 2899 2898 2896 2895 2895 2897 2896 2896 2896 2896 2897 2900 2901 2903 2907 2909 2911 2912 2915 2917 2918 2920 2922 2923 2923 2924 2924
2962 2957 2952 2946 2940 2935 2930 2926 2921 2918 2915 2912 2908 2905 2901 2898 2896 2894 2892 2891 2890 2889 2889 2888 2889 2891 2892 2892 2892 2895 2898 2898 2899 2902 2904 2906 2908 2909 2911 2913 2913 2914 2914
2960 2954 2947 2941 2937 2932 2926 2923 2919 2914 2910 2907 2905 2902 2899 2896 2893 2891 2890 2888 2886 2884 2884 2884 2884 2884 2883 2882 2884 2885 2886 2888 2889 2889 2891 2893 2896 2898 2899 2900 2903 2904 2906
2953 2949 2944 2938 2933 2929 2923 2918 2915 2910 2906 2902 2899 2896 2894 2891 2888 2885 2885 2884 2882 2881 2880 2878 2877 2877 2876 2875 2874 2874 2875 2876 2878 2879 2881 2881 2883 2886 2887 2888 2890 2892 2894
2948 2944 2939 2934 2930 2925 2921 2916 2910 2906 2902 2898 2894 2891 2888 2885 2883 2881 2878 2876 2875 2874 2873 2872 2871 2869 2868 2866 2865 2865 2864 2865 2865 2867 2867 2868 2870 2872 2874 2875 2878 2880 2882
2941 2937 2933 2928 2924 2919 2915 2912 2909 2904 2898 2894 2890 2886 2882 2881 2878 2876 2874 2872 2870 2868 2866 2864 2863 2861 2859 2858 2856 2855 2855 2854 2853 2854 2855 2856 2857 2858 2859 2862 2864 2866 2868
2935 2930 2925 2920 2916 2913 2908 2904 2900 2897 2894 2890 2885 2882 2878 2875 2872 2869 2866 2864 2862 2860 2858 2857 2855 2853 2851 2848 2846 2844 2843 2842 2841 2840 2839 2840 2840 2842 2845 2847 2849 2851 2854
2929 2924 2919 2914 2909 2904 2900 2897 2894 2890 2887 2885 2882 2877 2873 2869 2866 2864 2861 2859 2856 2854 2851 2848 2845 2842 2841 2839 2836 2834 2832 2831 2829 2827 2826 2826 2826 2826 2828 2831 2835 2837 2839
2924 2918 2913 2908 2903 2899 2894 2889 2886 2884 2881 2879 2876 2873 2870 2867 2864 2860 2857 2854 2850 2847 2845 2842 2839 2836 2833 2829 2826 2824 2821 2818 2817 2815 2813 2812 2813 2813 2815 2816 2819 2822 2825
2917 2911 2906 2902 2897 2892 2888 2883 2880 2877 2874 2871 2869 2867 2865 2862 2859 2856 2853 2850 2847 2844 2840 2837 2833 2831 2828 2824 2820 2816 2812 2808 2805 2803 2801 2799 2799 2800 2800 2802 2805 2808 2812
2912 2906 2901 2897 2892 2888 2883 2878 2874 2871 2869 2866 2863 2860 2858 2856 2854 2852 2849 2846 2844 2840 2837 2834 2829 2826 2821 2817 2814 2810 2804 2801 2797 2794 2792 2789 2788 2789 2790 2792 2795 2799 2802
2908 2903 2898 2893 2888 2883 2878 2874 2870 2866 2864 2861 2858 2855 2853 2851 2849 2846 2844 2842 2839 2837 2834 2831 2827 2823 2819 2815 2811 2806 2800 2796 2791 2787 2783 2781 2781 2781 2781 2783 2786 2790 2793
2905 2900 2894 2889 2884 2879 2875 2870 2866 2862 2859 2856 2853 2851 2848 2846 2844 2842 2839 2837 2835 2832 2830 2826 2823 2820 2817 2813 2809 2804 2799 2794 2788 2782 2778 2776 2775 2774 2774 2776 2779 2781 2783
2902 2897 2891 2886 2881 2877 2872 2867 2863 2859 2855 2852 2849 2846 2844 2842 2840 2837 2835 2833 2831 2828 2826 2823 2820 2817 2814 2810 2806 2801 2797 2792 2788 2783 2779 2775 2772 2771 2770 2771 2773 2774 2777
2899 2894 2888 2883 2879 2874 2869 2865 2860 2856 2852 2848 2845 2842 2840 2838 2836 2834 2832 2830 2827 2825 2822 2820 2817 2814 2811 2807 2804 2800 2796 2792 2789 2785 2780 2776 2772 2770 2769 2770 2771 2772 2774